Flag for USA

Past Weather in Big Rapids, Michigan, USA — Yesterday and Last 2 Weeks

Now
69 °F

Sunny.


Feels Like: 69 °F
Forecast: 78 / 59 °F
Wind: 9 mph from Northwest

Location: Roben-Hood Airport

Current Time: Jul 12, 2020 at 10:34:32 am

Latest Report: Jul 12, 2020 at 9:35 am


Visibility: 10 mi

Pressure: 29.87 "Hg

Humidity: 66%

Dew Point: 57 °F

Location of Big RapidsLocation

Past Weather in Big Rapids — Graph

°F

Big Rapids Temperature Yesterday

Maximum temperature yesterday: 83 °F (at 2:55 pm)
Minimum temperature yesterday: 60 °F (at 6:55 am)
Average temperature yesterday: 72 °F

High & Low Weather Summary for the Past Weeks

 TemperatureHumidityPressure
High92 °F (Jul 7, 3:15 pm)98% (Jun 28, 5:35 am)30.09 "Hg (Jun 28, 5:35 am)
Low55 °F (Jun 28, 5:55 am)24% (Jul 2, 4:16 pm)29.75 "Hg (Jun 27, 5:15 pm)
Average76 °F67%29.94 "Hg
* Reported Jun 27 8:16 am — Jul 12 8:55 am, Big Rapids. Weather by CustomWeather, © 2020

Note: Actual official high and low records may vary slightly from our data, if they occured in-between our weather recording intervals... More about our weather records

Big Rapids Weather History for the Previous 24 Hours

Scroll right to see more
 ConditionsComfort  
Time TempWeatherWind HumidityBarometerVisibility
8:55 am
Sun, Jul 12
68 °FSunny.8 mph71%29.86 "Hg10 mi
8:35 am66 °FSunny.9 mph76%29.86 "Hg10 mi
7:55 am64 °FSunny.7 mph79%29.86 "Hg10 mi
7:35 am64 °FSunny.6 mph80%29.86 "Hg10 mi
7:15 am62 °FSunny.3 mph82%29.86 "Hg10 mi
6:55 am62 °FSunny.No wind83%29.86 "Hg10 mi
6:35 am62 °FScattered clouds.5 mph83%29.86 "Hg10 mi
6:15 am62 °FSunny.6 mph83%29.84 "Hg10 mi
5:55 am62 °FClear.7 mph83%29.84 "Hg10 mi
5:35 am62 °FPassing clouds.6 mph84%29.84 "Hg10 mi
5:15 am63 °FMostly cloudy.6 mph84%29.83 "Hg10 mi
4:55 am63 °FMostly cloudy.6 mph85%29.83 "Hg10 mi
4:35 am62 °FMostly cloudy.5 mph90%29.83 "Hg10 mi
4:15 am63 °FPassing clouds.5 mph89%29.82 "Hg10 mi
3:55 am62 °FClear.5 mph90%29.82 "Hg10 mi
3:35 am62 °FClear.8 mph92%29.82 "Hg10 mi
3:15 am62 °FClear.5 mph91%29.82 "Hg10 mi
2:55 am63 °FClear.5 mph86%29.82 "Hg10 mi
2:35 am64 °FClear.3 mph83%29.82 "Hg10 mi
2:15 am64 °FPassing clouds.No wind83%29.82 "Hg10 mi
1:55 am64 °FPassing clouds.No wind83%29.82 "Hg10 mi
1:35 am65 °FPassing clouds.3 mph80%29.82 "Hg10 mi
1:15 am65 °FPassing clouds.6 mph80%29.82 "Hg10 mi
12:55 am66 °FClear.7 mph79%29.82 "Hg10 mi
12:35 am64 °FClear.7 mph84%29.82 "Hg10 mi
12:15 am64 °FClear.3 mph86%29.82 "Hg10 mi
11:55 pm
Sat, Jul 11
64 °FClear.No wind85%29.82 "Hg10 mi
11:35 pm64 °FClear.No wind86%29.82 "Hg10 mi
11:15 pm65 °FClear.No wind80%29.82 "Hg10 mi
10:55 pm65 °FClear.3 mph83%29.82 "Hg10 mi
10:35 pm66 °FClear.No wind78%29.82 "Hg10 mi
10:15 pm70 °FClear.9 mph65%29.82 "Hg10 mi
9:55 pm72 °FClear.12 mph61%29.82 "Hg10 mi
9:35 pm72 °FClear.5 mph60%29.82 "Hg10 mi
8:55 pm76 °FSunny.5 mph51%29.82 "Hg10 mi
8:35 pm77 °FSunny.6 mph48%29.81 "Hg10 mi
8:15 pm78 °FSunny.5 mph46%29.81 "Hg10 mi
7:55 pm79 °FSunny.8 mph44%29.80 "Hg10 mi
7:35 pm79 °FSunny.6 mph42%29.80 "Hg10 mi
7:15 pm80 °FSunny.7 mph41%29.80 "Hg10 mi
6:55 pm80 °FSunny.9 mph40%29.80 "Hg10 mi
6:35 pm80 °FSunny.10 mph39%29.80 "Hg10 mi
6:15 pm81 °FSunny.12 mph39%29.80 "Hg10 mi
5:55 pm81 °FScattered clouds.13 mph39%29.81 "Hg10 mi
5:35 pm82 °FScattered clouds.12 mph39%29.80 "Hg10 mi
5:15 pm82 °FSunny.10 mph39%29.81 "Hg10 mi
4:55 pm82 °FScattered clouds.13 mph38%29.81 "Hg10 mi
4:35 pm82 °FScattered clouds.14 mph38%29.81 "Hg10 mi
3:55 pm82 °FScattered clouds.10 mph39%29.82 "Hg10 mi
3:35 pm82 °FScattered clouds.13 mph40%29.83 "Hg10 mi
3:15 pm83 °FSunny.15 mph38%29.82 "Hg10 mi
2:55 pm83 °FScattered clouds.16 mph38%29.83 "Hg10 mi
2:35 pm83 °FScattered clouds.10 mph40%29.83 "Hg10 mi
1:55 pm83 °FScattered clouds.15 mph39%29.83 "Hg10 mi
1:35 pm82 °FScattered clouds.15 mph43%29.84 "Hg10 mi
1:15 pm82 °FScattered clouds.14 mph41%29.83 "Hg10 mi
12:55 pm82 °FScattered clouds.12 mph44%29.84 "Hg10 mi
12:35 pm80 °FBroken clouds.8 mph48%29.84 "Hg10 mi
12:15 pm80 °FMore clouds than sun.9 mph51%29.84 "Hg10 mi
11:55 am80 °FBroken clouds.8 mph54%29.84 "Hg10 mi
11:35 am80 °FScattered clouds.14 mph55%29.84 "Hg10 mi
11:15 am79 °FSunny.13 mph57%29.84 "Hg10 mi
10:55 am78 °FSunny.10 mph61%29.84 "Hg10 mi
10:35 am77 °FSunny.12 mph63%29.84 "Hg10 mi
10:15 am76 °FSunny.10 mph67%29.84 "Hg10 mi
Weather by CustomWeather, © 2020

See weather overview